FGRST (GLAST)

Last updated on July 6, 2021, 3:27 p.m. UTC

1 33053U 08029A   21186.89679241  .00000648  00000-0  20175-4 0  9994
2 33053  25.5837   8.7700 0012505 125.5132 234.6571 15.11545225721223
UTC
Height (km)
Latitude
Longitude
Inclination
Orbital Period
UTC large
Height (km)
Speed (km/s)
/
Latitude / Longitude
Inclination (degrees)
Orbital Period (minutes)
Azimuth
Elevation
Range (km)
Doppler Factor
iOS Compass Heading
iOS Angle